Location: Ferchesar
(52.6477°N, 12.4298°E)
Time: 05:25:31
(UTC+01:00)

Vanguard 2 Rocket - Pass Details

Date: 05 December 2021
Orbit: 553 x 3325 km, 32.9° (Epoch: 25 January)

Event Time Altitude Azimuth Distance (km) Brightness Sun altitude
Rises 22:06:11 0° 251° (WSW) 4,364 10.6 -52.7°
Enters shadow 22:08:06 - 243° (WSW) 4,034 10.3 -52.9°
Reaches altitude 10° 22:09:52 10° 234° (SW) 3,811 - -53.1°
Maximum altitude 22:16:30 19° 194° (SSW) 3,820 - -53.8°
Drops below altitude 10° 22:25:27 10° 157° (SSE) 5,330 - -54.7°
Sets 22:32:13 0° 143° (SE) 6,806 - -55.4°
